Snowfall_Accumulation
0.9 3.1 6.2 2.8 1.9 2.4 2.3 2.8 2.8 1.2 0.4 0.9 1.1 1.0 0.9 0.5 0.5 0.4 0.4 0.4 0.5 0.5 0.5 0.3 0.1 0.1 0.1 0.1 0.2 0.0 0.1 0.0 0.0 0.0 0.1 0.1 0.2 0.2 0.0 0.0 0.0 0.1 0.0 0.0
3.7 5.6 2.2 1.2 1.1 2.2 3.2 4.3 3.3 1.5 0.5 1.5 1.1 1.1 0.7 0.6 0.7 0.7 0.6 0.6 0.6 0.5 0.5 0.5 0.4 0.3 0.1 0.3 0.4 0.1 0.1 0.1 0.1 0.1 0.1 0.1 0.2 0.2 0.2 0.1 0.0 0.0 0.1 0.0
5.6 2.7 0.7 1.5 2.1 3.6 3.9 4.3 2.9 2.9 1.4 1.1 1.7 2.2 1.2 1.1 0.6 0.6 0.6 0.6 0.7 0.7 0.6 0.6 0.6 0.5 0.2 0.2 0.5 0.5 0.5 0.2 0.2 0.2 0.1 0.1 0.2 0.2 0.3 0.3 0.0 0.0 0.1 0.1
2.4 0.9 0.8 2.0 2.1 3.3 4.9 1.3 1.5 2.5 4.1 6.2 3.8 8.1 2.2 1.3 1.0 0.7 0.6 0.5 0.6 0.7 0.6 0.6 0.6 0.6 0.5 0.4 0.3 0.4 0.2 0.4 0.2 0.2 0.2 0.2 0.4 0.4 0.5 0.4 0.4 0.1 0.1 0.1
4.4 1.2 1.4 3.3 1.6 2.0 2.9 1.0 1.7 2.4 4.9 7.6 4.2 7.6 4.3 1.8 1.9 1.0 1.1 0.8 0.6 0.6 0.6 0.5 0.5 0.5 0.3 0.4 0.4 0.4 0.3 0.4 0.2 0.4 0.4 0.3 0.3 0.4 0.4 0.3 0.4 0.1 0.1 0.1
1.7 0.8 1.2 1.4 0.6 1.0 1.2 1.2 2.2 3.8 8.3 13.9 5.1 6.9 6.2 4.3 3.3 1.3 0.9 0.9 0.7 0.5 0.5 0.5 0.4 0.3 0.3 0.3 0.3 0.4 0.5 0.6 0.4 0.3 0.3 0.4 0.4 0.3 0.4 0.4 0.5 0.4 0.2 0.2
7.7 2.5 1.3 0.8 3.0 2.0 3.9 13.0 22.2 21.7 20.2 10.1 2.7 4.9 6.8 3.7 1.7 1.7 1.2 0.9 0.9 0.6 0.7 0.5 0.5 0.4 0.3 0.3 0.3 0.3 0.4 0.5 0.6 0.6 0.6 0.7 0.7 0.5 0.5 0.6 0.8 0.6 0.6 0.8
11.3 9.0 2.6 1.4 2.4 4.0 4.6 9.8 16.7 14.5 9.6 4.7 3.2 5.3 6.5 3.2 1.7 1.5 1.3 1.1 0.8 0.7 0.7 0.7 0.5 0.4 0.4 0.3 0.4 0.4 0.3 0.3 0.4 0.7 0.9 1.1 1.2 0.8 0.7 0.5 0.6 0.8 0.8 0.7
9.4 7.3 1.1 1.0 1.1 2.4 6.0 8.4 7.0 12.1 8.7 6.1 4.7 4.8 4.0 2.0 1.9 1.9 1.4 1.1 1.0 0.8 0.7 0.6 0.6 0.5 0.5 0.4 0.3 0.4 0.3 0.3 0.2 0.3 0.7 0.7 0.9 1.1 1.2 0.7 0.6 0.6 0.8 0.8
6.5 9.2 2.5 0.9 1.0 1.3 2.3 4.7 10.1 18.1 14.8 8.7 4.9 4.3 5.6 4.5 3.4 2.9 1.6 1.5 1.4 1.0 0.8 0.6 0.5 0.6 0.5 0.4 0.3 0.3 0.2 0.2 0.2 0.3 0.3 0.7 0.7 0.9 1.1 1.1 0.7 0.6 0.7 0.7
3.5 11.1 7.0 3.7 5.6 6.1 5.5 8.6 12.2 14.5 12.6 11.3 7.6 6.2 5.2 4.4 3.5 3.1 2.1 2.0 1.8 1.4 1.0 0.8 0.8 0.7 0.7 0.5 0.5 0.3 0.3 0.2 0.2 0.2 0.3 0.3 0.6 0.7 0.7 0.9 0.5 0.6 0.6 0.7
3.7 10.4 10.1 4.7 1.8 1.7 3.9 7.0 10.4 17.1 13.3 10.2 8.7 6.9 3.5 3.3 2.6 2.5 2.2 2.0 2.0 1.5 1.4 1.1 0.8 0.8 0.7 0.7 0.6 0.5 0.4 0.4 0.2 0.1 0.2 0.3 0.3 0.3 0.4 0.6 0.6 0.3 0.4 0.6
6.8 14.2 14.7 7.5 4.3 2.3 6.8 5.7 6.3 10.7 16.6 13.6 11.0 7.2 3.2 2.2 2.0 2.1 2.4 2.1 1.9 1.5 1.6 1.3 1.1 0.9 0.9 0.9 0.9 0.6 0.5 0.5 0.3 0.2 0.2 0.2 0.2 0.1 0.2 0.2 0.2 0.4 0.5 0.6
5.4 13.4 12.2 10.0 8.9 8.9 8.7 6.1 6.5 14.1 21.2 12.5 7.0 5.0 3.1 2.5 2.6 2.4 2.2 2.3 2.1 1.9 1.9 1.7 1.5 1.3 1.6 1.1 1.3 1.1 0.8 0.6 0.5 0.5 0.2 0.2 0.2 0.2 0.2 0.1 0.1 0.2 0.3 0.3
3.8 12.5 8.6 4.6 2.8 4.3 5.9 5.8 5.5 10.1 11.4 12.0 6.6 4.2 3.5 3.2 3.1 2.8 2.5 2.3 2.0 2.0 1.8 1.7 1.6 1.5 1.7 1.4 1.3 1.3 1.1 0.7 0.6 0.5 0.5 0.2 0.2 0.2 0.3 0.1 0.1 0.1 0.2 0.1
3.4 8.6 7.3 6.1 2.1 2.4 4.4 3.2 3.1 4.5 4.9 6.5 5.0 4.5 3.3 2.9 2.4 2.2 2.5 2.4 2.3 2.2 2.1 1.7 1.4 1.3 1.5 1.7 1.7 1.6 1.4 1.0 0.7 0.6 0.5 0.5 0.3 0.2 0.3 0.1 0.1 0.1 0.2 0.1
4.9 6.1 12.4 8.2 3.4 4.5 7.7 3.7 3.7 4.3 4.4 5.0 6.2 4.4 3.3 2.7 2.6 2.7 2.6 2.5 2.5 2.4 2.2 1.8 1.6 1.5 1.5 1.5 1.8 2.0 1.8 1.3 0.8 0.8 0.6 0.6 0.5 0.4 0.5 0.4 0.2 0.2 0.3 0.2
3.9 6.0 13.1 10.0 6.9 9.3 4.8 2.9 2.9 3.3 4.0 3.9 3.6 3.4 3.1 2.9 2.7 2.7 2.7 2.5 2.4 2.4 2.4 1.8 1.5 1.4 1.3 1.4 1.5 1.9 1.9 1.5 1.2 1.1 1.0 0.7 0.6 0.5 0.6 0.6 0.9 0.7 0.5 0.5
2.1 4.9 12.4 12.1 9.2 6.0 2.4 2.1 3.3 3.6 4.3 3.7 3.3 2.6 2.5 2.2 1.9 2.1 2.0 2.2 2.5 2.5 2.5 2.2 1.7 1.5 1.3 1.2 1.4 1.7 1.6 1.4 1.3 1.2 1.2 1.1 0.9 1.0 1.1 1.0 1.0 1.1 1.4 1.4
2.1 4.1 10.9 12.5 10.9 6.1 3.8 2.0 2.1 3.0 4.7 3.3 2.6 2.6 2.5 2.2 3.0 2.6 2.1 1.9 2.0 2.0 1.9 2.2 2.0 1.6 1.2 1.2 1.2 1.5 1.8 2.1 1.8 1.6 1.7 1.5 1.5 2.0 2.2 2.1 2.1 1.6 1.6 1.6
4.3 8.0 11.6 10.4 10.1 5.0 3.6 2.0 1.8 5.2 8.0 3.2 2.9 3.0 2.9 3.7 3.8 2.8 2.1 2.0 2.0 2.1 2.0 1.8 2.0 1.6 1.5 1.3 1.4 1.6 1.9 2.1 2.4 2.1 2.0 1.9 2.1 2.3 2.8 2.5 2.2 1.9 1.9 1.5
4.5 6.4 7.3 7.8 10.5 7.4 3.7 2.8 5.4 6.6 3.6 2.8 2.7 2.8 3.0 2.8 2.4 2.0 2.0 2.1 2.0 2.0 1.9 2.1 2.4 2.4 1.4 1.9 2.7 3.0 3.3 3.5 2.6 2.7 3.1 3.1 2.4 2.3 2.5 2.4 2.6 2.2 2.1 1.9
4.9 6.2 6.5 6.9 7.6 6.3 4.7 5.1 5.1 4.1 3.6 2.8 2.8 2.7 2.7 2.6 2.4 2.2 2.0 2.0 2.0 2.1 2.3 2.3 2.7 2.8 2.1 2.2 2.7 3.1 3.4 2.3 3.0 3.3 3.1 2.7 2.1 1.7 1.8 2.0 2.2 2.3 2.2 2.1
3.9 3.3 4.5 5.8 5.8 4.9 4.5 3.9 3.3 3.3 3.7 3.4 3.0 2.9 2.8 2.8 2.5 2.3 2.2 2.2 2.1 2.3 2.4 2.8 3.1 3.1 2.9 2.6 2.6 3.0 3.0 2.7 2.3 2.9 2.8 2.8 2.5 2.2 1.8 1.5 1.7 2.0 2.2 2.3
4.1 3.7 4.4 5.1 4.7 3.8 3.6 3.6 3.5 3.2 2.9 2.7 2.4 2.4 2.7 2.8 2.8 2.6 2.6 2.5 2.4 2.5 2.4 2.8 3.4 3.5 3.1 3.0 3.2 3.0 2.9 2.8 2.7 2.4 2.5 2.2 2.2 2.3 2.1 1.9 1.9 2.1 1.9 2.3
4.0 4.4 5.3 5.7 4.4 4.5 4.4 3.7 3.1 3.0 3.0 2.9 2.7 2.5 2.3 2.5 2.9 2.7 2.5 2.5 2.5 2.7 2.5 2.6 3.1 3.4 3.4 3.1 3.2 2.7 2.7 2.7 2.9 2.9 2.8 2.8 3.0 2.7 2.9 2.7 2.9 1.9 1.7 1.5